Theta_e
342 344 344 344 343 345 345 344 344 344 342 341 341 342 338 335 336 335 335 334 335 335 335 335 337 340 338 338 336 338 340 337 338 341 340 339 341 338 335 329 334 332 335
343 342 345 346 342 344 345 345 346 344 336 335 335 336 334 334 334 334 335 335 336 336 335 335 336 335 335 337 336 334 336 336 336 335 337 339 339 339 340 337 332 332 331
341 344 343 345 344 342 344 344 345 343 335 333 333 332 332 334 333 334 336 335 336 337 337 336 337 338 337 335 332 332 334 336 336 333 334 335 337 339 339 341 338 334 334
344 342 342 346 347 345 344 344 345 345 342 344 335 333 333 334 334 335 337 337 338 337 336 337 337 335 335 335 333 333 330 329 330 327 328 332 333 335 339 339 341 339 337
345 344 343 346 348 347 341 344 346 347 346 344 345 334 333 334 336 336 337 337 337 336 337 334 333 334 334 333 333 332 331 329 328 327 326 327 328 330 334 336 339 339 339
345 345 343 341 347 346 345 344 344 346 346 347 342 341 333 335 335 334 335 335 335 334 332 331 330 330 330 329 329 330 330 329 330 328 326 328 327 328 332 334 338 339 338
344 346 346 342 343 344 344 346 346 346 346 346 345 341 336 333 335 336 337 334 334 333 332 331 328 324 323 322 323 324 325 326 331 330 328 327 328 328 327 330 333 339 340
343 347 347 344 346 347 345 344 345 346 345 343 340 340 340 336 334 335 335 333 333 331 327 322 320 320 319 318 322 326 327 327 327 327 327 328 328 328 328 327 327 327 329
339 346 347 346 343 347 348 348 349 346 344 341 338 339 340 337 336 335 335 333 332 326 320 320 319 320 320 319 318 320 326 327 327 327 328 329 329 329 329 328 327 328 327
336 343 347 347 349 349 349 349 347 345 344 336 334 334 336 339 338 336 336 336 328 323 320 320 321 320 317 315 316 321 325 327 327 327 327 328 328 328 328 327 327 326 327
336 337 346 348 348 348 350 349 347 346 330 332 332 332 334 340 338 337 338 337 328 324 321 321 322 321 319 318 311 312 314 314 316 320 323 325 325 325 324 325 326 326 325
337 337 345 347 347 350 350 350 350 346 336 335 335 336 336 340 340 339 338 335 329 324 321 323 323 322 320 313 310 308 309 312 316 317 318 319 319 320 320 321 322 323 322
337 339 344 346 348 350 350 352 351 347 343 335 337 339 340 340 338 340 337 333 330 324 322 324 323 322 314 309 307 308 310 314 316 318 317 316 316 315 316 317 317 318 320
335 335 340 344 347 349 348 351 351 346 344 342 337 340 340 340 338 340 337 332 330 326 326 325 323 320 314 311 307 308 310 315 316 316 315 314 314 314 314 318 320 319 317
334 335 336 339 343 344 348 350 350 347 345 344 341 343 341 340 340 340 337 331 329 328 328 327 323 319 313 307 306 308 309 310 311 313 313 313 319 320 320 321 321 321 320
334 335 336 340 343 350 353 351 352 340 342 341 340 341 341 339 340 339 333 330 330 329 329 325 321 319 311 306 306 307 309 312 308 310 313 318 320 320 320 319 320 320 320
338 338 338 337 342 344 348 350 349 341 340 335 343 342 341 340 340 335 331 331 330 330 325 321 321 315 306 305 308 311 310 307 311 314 319 319 319 319 319 320 321 321 322
339 342 342 341 339 340 343 347 348 338 342 339 344 341 339 340 336 333 331 331 330 327 322 322 318 306 305 308 309 306 307 311 318 319 318 318 318 319 320 322 323 324 325
341 344 345 346 344 341 342 346 346 344 341 345 342 340 339 338 333 331 331 331 328 323 322 317 307 305 307 308 305 308 313 315 319 319 318 318 319 321 323 325 325 326 326
342 344 346 348 350 352 351 349 350 346 347 343 342 340 337 332 332 332 330 329 325 322 314 306 306 307 307 305 306 311 315 317 319 318 317 318 322 324 325 326 326 326 326
344 345 347 350 354 352 351 351 351 347 343 342 340 338 332 332 333 331 329 326 321 313 307 306 307 307 305 305 306 311 312 313 319 316 318 321 325 326 327 326 326 326 326
346 346 350 354 355 352 354 352 350 346 343 342 340 335 332 333 331 330 327 320 311 307 306 306 307 307 306 305 308 310 311 316 315 317 318 323 324 324 324 326 326 327 326
347 349 354 357 356 356 353 352 347 344 343 341 339 335 332 328 330 327 320 311 307 307 305 306 307 307 306 306 309 309 317 319 316 317 315 321 322 324 324 322 325 328 327
349 354 357 356 356 354 352 350 346 344 342 339 337 331 326 329 325 320 311 308 306 306 304 305 306 307 306 308 308 309 319 320 318 316 314 319 321 323 323 319 323 327 328
354 358 357 357 354 352 351 348 344 340 338 335 329 325 328 324 321 312 310 307 306 305 305 305 307 307 306 308 308 309 318 319 320 317 317 317 318 319 321 317 327 329 328
358 359 357 355 351 348 348 342 338 332 329 325 323 325 324 321 314 311 308 306 305 304 304 305 306 306 305 306 307 308 320 319 318 316 317 317 318 317 318 316 320 327 327
Wind_Speed
6 4 2 2 3 5 4 5 5 6 7 9 11 10 10 10 7 6 4 5 6 7 6 6 7 7 9 8 9 10 10 11 11 12 17 20 20 19 18 16 16 17 18
4 3 1 1 2 2 2 5 5 9 12 11 12 11 12 12 9 7 5 5 6 7 6 7 9 9 9 9 11 13 13 14 13 15 15 15 20 21 20 21 20 20 19
4 3 3 3 2 5 5 5 7 8 11 10 13 16 17 16 8 6 6 7 7 9 8 8 8 8 9 10 10 11 12 12 12 13 14 17 18 20 23 24 24 22 21
5 6 6 7 7 8 9 9 9 8 9 12 13 17 19 15 8 7 9 10 11 6 7 6 6 7 9 10 10 9 10 13 14 14 15 17 18 18 21 26 26 26 23
8 8 9 9 9 11 11 10 10 10 13 14 16 18 21 14 9 7 8 10 9 8 6 5 7 9 11 13 14 16 16 14 13 15 15 16 19 20 19 20 26 28 26
11 10 12 13 12 13 13 12 12 14 16 17 18 17 18 11 8 6 11 7 7 7 6 7 10 12 14 16 16 17 18 19 18 16 14 15 14 17 19 19 20 28 29
17 16 17 14 15 17 16 16 16 18 17 19 23 23 19 9 13 14 16 15 11 11 12 14 17 17 18 18 19 20 20 19 21 21 18 17 15 14 14 16 15 17 28
21 20 18 16 13 15 17 18 20 21 19 22 25 28 18 23 7 12 19 10 12 14 15 14 15 17 19 20 19 16 15 17 19 21 21 21 19 18 16 15 13 11 12
24 23 20 19 19 20 22 17 19 19 18 18 20 26 20 15 26 12 12 10 14 14 13 15 15 16 18 20 22 23 20 18 17 16 17 18 20 20 20 19 18 17 17
26 27 23 22 21 22 25 21 17 15 10 26 20 19 23 23 22 23 19 19 16 16 14 16 17 20 21 19 20 21 22 23 22 20 19 20 20 21 23 24 24 22 20
25 27 26 24 22 20 19 19 17 6 39 49 17 19 24 22 23 20 25 23 23 16 15 18 20 23 22 25 23 22 22 23 24 25 24 24 24 25 25 27 29 29 29
24 26 28 26 24 21 15 22 20 13 12 25 19 23 25 18 21 20 17 20 23 25 22 19 22 24 25 26 24 24 23 23 23 23 24 26 29 32 34 35 36 37 37
25 26 27 26 23 17 17 27 27 24 18 19 25 26 19 17 20 21 16 13 22 26 26 24 26 27 29 29 28 25 23 22 23 25 26 23 28 33 35 39 42 44 45
26 26 28 27 24 19 21 23 26 27 27 23 25 23 21 18 19 20 14 12 18 24 29 29 29 30 31 33 29 26 26 26 28 31 33 38 42 42 40 42 44 45 48
28 26 24 25 24 23 23 22 21 20 29 22 31 26 21 17 19 19 12 12 15 19 29 32 32 32 33 34 30 28 29 30 30 32 35 38 39 42 44 45 44 47 47
28 26 24 21 20 18 18 18 16 18 19 22 27 22 18 15 15 10 11 13 15 18 26 29 31 34 35 32 29 28 28 29 32 31 35 37 40 41 36 32 34 39 43
30 27 25 24 23 24 27 23 21 23 24 26 22 17 10 11 12 11 10 14 16 19 25 31 34 36 34 31 29 30 31 32 33 38 39 38 35 31 28 28 28 30 32
30 28 25 25 26 26 26 20 17 25 33 18 18 9 7 10 10 10 11 14 17 20 24 32 36 35 33 30 33 34 32 34 39 45 37 28 23 22 23 24 28 27 27
32 28 26 25 25 26 27 23 21 21 22 14 6 4 8 9 8 10 12 15 18 21 25 29 32 31 31 33 35 36 40 44 46 42 29 24 24 21 19 20 21 25 27
30 28 26 23 24 22 22 18 21 23 13 4 4 6 8 6 8 10 13 15 20 24 26 26 27 29 32 33 36 42 47 47 52 36 34 28 21 17 14 13 14 17 17
28 24 22 21 22 15 20 11 13 4 2 6 7 5 5 7 9 11 13 17 21 24 24 24 26 29 31 37 37 40 45 52 53 36 34 28 23 22 14 12 8 8 10
23 20 18 17 16 12 3 5 5 4 9 9 8 3 5 6 9 12 16 20 22 22 24 24 25 28 31 34 35 39 44 51 47 33 33 28 28 20 14 13 8 6 7
17 15 14 12 12 6 5 4 5 7 7 7 4 5 4 6 9 12 17 19 18 19 20 20 22 22 31 31 34 39 41 44 44 29 34 34 31 18 20 28 14 4 6
15 14 11 9 4 3 2 4 6 7 6 4 6 4 5 6 10 14 16 18 18 17 15 16 18 20 26 26 29 32 38 45 44 32 39 30 33 24 17 31 16 4 7
15 14 8 7 8 6 3 5 6 7 7 5 3 2 4 7 13 14 17 18 18 15 13 13 14 17 20 20 25 31 38 44 48 37 39 29 32 26 19 31 13 11 12
15 11 10 10 9 7 7 7 9 8 5 2 1 1 4 9 11 15 18 19 18 18 18 16 16 17 19 21 23 27 31 38 40 26 35 29 31 29 16 33 24 16 14
Wind_Direction
147 146 70 78 132 118 71 33 358 346 354 348 344 340 335 335 320 328 321 321 318 335 302 312 298 289 295 299 306 294 295 297 293 283 266 264 260 253 248 248 246 252 247
168 195 305 294 161 193 335 357 353 6 6 6 349 334 332 328 305 301 318 322 337 344 330 329 330 311 311 302 306 303 289 289 291 296 285 277 261 253 247 239 233 239 246
216 236 242 214 260 272 304 328 328 358 9 354 355 351 344 342 322 274 280 300 311 310 305 294 306 306 305 299 308 305 300 295 295 301 296 282 276 261 248 242 237 239 237
230 241 231 241 279 279 287 297 306 325 330 336 340 350 348 346 330 289 295 292 304 290 287 287 289 283 279 284 295 302 299 299 295 293 288 280 281 280 260 248 242 237 238
258 250 233 251 273 270 291 283 293 310 322 333 336 341 348 350 341 314 304 294 281 270 263 273 276 269 272 278 283 286 281 285 278 289 287 283 278 272 265 263 249 243 234
240 252 249 247 260 277 286 292 293 302 318 326 331 330 339 327 331 348 346 316 278 272 279 288 291 290 287 285 285 283 279 276 270 275 280 292 290 277 265 261 258 246 240
242 251 256 255 256 271 284 291 300 307 313 322 331 327 333 327 306 299 306 311 291 289 297 303 301 297 295 290 288 287 282 275 265 267 266 265 276 285 279 268 264 252 244
246 250 251 247 254 277 281 294 299 305 311 325 332 327 326 323 316 305 296 300 302 310 312 309 309 310 310 311 311 302 287 279 275 269 263 259 263 267 272 274 272 267 283
248 248 254 252 261 273 282 291 302 308 318 331 344 329 317 305 312 316 298 296 313 309 316 318 320 317 311 307 299 293 287 282 278 274 268 262 254 254 258 260 263 267 265
251 246 251 252 270 273 277 289 306 321 331 17 309 293 296 288 295 309 303 305 307 320 325 327 331 330 328 321 304 291 287 284 282 278 271 263 254 248 248 249 253 252 251
254 244 244 253 267 276 281 286 291 357 49 348 296 299 313 291 284 283 293 308 307 318 328 325 330 329 330 327 319 308 302 296 289 281 278 274 270 268 263 258 258 257 255
252 244 244 253 264 276 279 269 269 267 318 328 313 313 305 279 283 287 282 306 310 317 319 324 333 330 330 329 321 312 304 297 292 286 283 282 280 277 274 270 264 263 261
252 247 247 254 263 271 277 268 267 279 289 340 327 316 295 273 281 276 281 293 299 308 312 323 334 334 336 330 322 314 307 298 293 289 287 287 296 293 286 277 268 262 260
258 254 250 255 261 268 270 277 285 301 303 295 336 318 292 281 286 269 279 284 293 306 315 325 332 338 332 328 324 315 309 305 302 296 289 284 293 290 282 280 275 266 258
258 259 258 255 258 264 265 275 286 315 306 288 325 316 294 282 281 274 294 282 292 307 313 320 328 332 328 327 326 320 316 309 304 302 301 298 297 292 285 279 273 265 257
263 265 263 260 253 255 258 264 270 270 277 284 299 304 296 282 270 282 293 290 300 304 298 311 324 328 327 328 325 322 318 318 312 307 310 305 303 297 290 280 273 263 258
266 267 265 258 255 255 259 263 272 287 288 298 306 304 289 287 282 297 290 298 302 305 304 317 324 328 330 331 330 332 328 324 321 320 318 312 300 290 283 275 267 262 257
270 273 271 263 255 253 255 252 255 279 300 289 307 281 298 287 288 289 285 298 304 310 314 319 324 329 336 338 339 336 337 335 334 335 325 320 309 296 285 274 263 253 248
269 271 271 268 264 259 259 254 255 257 292 288 263 279 299 276 278 270 289 299 309 315 317 319 323 336 337 345 344 345 346 345 340 341 338 338 333 316 295 278 266 256 257
269 269 270 270 267 265 263 253 256 247 268 225 241 271 284 271 262 270 292 304 315 322 322 326 336 339 344 347 349 349 347 348 346 345 346 346 339 331 317 282 265 260 261
266 269 271 270 274 296 269 254 248 258 173 187 222 239 247 248 268 287 302 318 325 327 330 339 342 344 350 349 350 348 345 344 350 350 344 2 350 351 344 332 271 254 265
264 264 264 272 282 286 289 259 151 141 170 188 197 261 252 273 284 300 323 330 332 335 341 340 344 343 348 347 347 349 348 348 347 354 350 11 3 7 358 3 18 286 251
253 243 245 262 290 314 5 92 112 150 171 179 201 268 291 291 304 324 332 337 340 340 340 343 342 345 344 346 346 351 352 355 358 360 357 4 7 360 4 350 321 284 232
229 225 232 257 234 172 189 141 132 148 153 175 238 267 294 313 329 335 342 347 350 348 349 348 347 350 344 344 348 351 357 359 7 15 7 358 0 7 7 351 337 230 182
215 213 218 205 180 161 186 143 140 144 142 179 225 271 308 337 343 343 347 357 358 359 4 2 359 353 351 347 353 356 2 7 6 14 9 6 11 16 21 14 56 115 134
208 204 183 175 170 203 161 132 129 125 132 161 170 281 340 346 344 352 355 357 359 1 2 6 7 6 6 7 10 9 6 13 12 10 12 16 27 26 9 35 64 113 131